Regional Weather Roundup
Issued by NWS

Home | Current Version | Previous Version | Text Only | Print | Product List | Glossary Off
Versions: 1 2 3 4 5 6 7 8 9 10 11 12 13 14 15 16 17 18 19 20 21 22 23 24 25 26 27 28 29 30 31 32 33 34 35 36 37 38 39 40 41 42 43 44 45 46 47 48 49 50

000
ASUS45 KABQ 130610
RWRNM
NEW MEXICO REGIONAL WEATHER ROUNDUP
NATIONAL WEATHER SERVICE ALBUQUERQUE NM
1100 PM MST FRI FEB 12 2016

NOTE: "FAIR" MEANS FEW OR NO CLOUDS BELOW 12,000 FEET AGL WITH NO
       SIGNIFICANT WEATHER OR OBSTRUCTIONS TO VISION.

      THIS PRODUCT IS RELEASED AS TWO VERSIONS.  ONE VERSION NEAR
      THE TOP OF THE HOUR CONTAINING PRELIMINARY DATA FROM ALBUQUERQUE
      AND OTHER STATIONS.  A FINAL VERSION WITH ADDITIONAL DATA IS
      ISSUED ABOUT 10 MINUTES AFTER THE HOUR.

NMZ501-503-504-510>518-130700-
NORTHWEST PLATEAU/NORTHCENTRAL MOUNTAINS

CITY           SKY/WX    TMP DP  RH WIND       PRES   REMARKS
FARMINGTON     CLOUDY    33  25  72 E7        30.34S WCI  27
6HR MIN TEMP:  31; 6HR MAX TEMP:  59;

LOS ALAMOS     CLOUDY    46  20  36 SW7       30.40S
SANTA FE       CLOUDY    35  20  54 N6        30.35S WCI  30
6HR MIN TEMP:  35; 6HR MAX TEMP:  62;

TAOS           CLOUDY    30  23  74 N6        30.39S WCI  24
ANGEL FIRE     FAIR      19  16  88 CALM      30.44F

$$
NMZ402-403-502-505>509-130700-
WESTCENTRAL MOUNTAINS/SOUTHWEST MOUNTAINS

CITY           SKY/WX    TMP DP  RH WIND       PRES   REMARKS
GALLUP         CLEAR     25  18  74 CALM      30.37S
6HR MIN TEMP:  25; 6HR MAX TEMP:  65;

GRANTS         CLEAR     28  12  51 NW10      30.40S WCI  18
SILVER CITY      N/A     39  14  35 N10       30.34S WCI  32

$$
NMZ407-409-411-412-130700-
SOUTHERN DESERTS

CITY           SKY/WX    TMP DP  RH WIND       PRES   REMARKS
LORDSBURG      FAIR      46  14  27 SE10      30.26F
DEMING         PTCLDY    44  11  26 N7        30.28S
6HR MIN TEMP:  39; 6HR MAX TEMP:  73;

LAS CRUCES     PTCLDY    44  12  27 NW6       30.28F
HOLLOMAN AFB   CLEAR     39   8  27 SE5       30.27R
ALAMOGORDO     CLOUDY    46   7  19 CALM      30.29R
T OR C         CLEAR     45   5  19 W10       30.30R
6HR MIN TEMP:  45; 6HR MAX TEMP:  71;


$$
NMZ519>523-130700-
CENTRAL VALLEYS/CENTRAL HIGHLANDS

CITY           SKY/WX    TMP DP  RH WIND       PRES   REMARKS
ALBUQUERQUE    CLOUDY    46  19  34 CALM      30.33R
6HR MIN TEMP:  46; 6HR MAX TEMP:  66;

DOUBLE EAGLE   CLOUDY    37  21  51 CALM      30.34S
MORIARTY ARPT  FAIR      26  20  77 N3        30.38S
6HR MIN TEMP:  26; 6HR MAX TEMP:  65;

CLINES CORNERS CLOUDY    44  17  33 S5        30.37F
6HR MIN TEMP:  43; 6HR MAX TEMP:  61;

BELEN          FAIR      37  11  33 CALM      30.32S
6HR MIN TEMP:  35; 6HR MAX TEMP:  67;

SOCORRO        FAIR      41  11  28 CALM      30.31R
6HR MIN TEMP:  41; 6HR MAX TEMP:  69;


$$
NMZ524>526-539-540-130700-
SOUTHCENTRAL MOUNTAINS

CITY           SKY/WX    TMP DP  RH WIND       PRES   REMARKS
RUIDOSO          N/A     41  16  36 CALM      30.40F

$$
NMZ527>531-130700-
NORTHEAST HIGHLANDS/NORTHEAST PLAINS

CITY           SKY/WX    TMP DP  RH WIND       PRES   REMARKS
LAS VEGAS      CLOUDY    39  20  46 SW10      30.37F WCI  32
6HR MIN TEMP:  36; 6HR MAX TEMP:  54;

RATON          CLOUDY    33  21  61 N7        30.35F WCI  27
6HR MIN TEMP:  33; 6HR MAX TEMP:  56;

CLAYTON        CLOUDY    40  24  53 SW8       30.31F WCI  34
6HR MIN TEMP:  39; 6HR MAX TEMP:  57;


$$
NMZ532>537-130700-
EASTCENTRAL PLAINS

CITY           SKY/WX    TMP DP  RH WIND       PRES   REMARKS
TUCUMCARI      CLOUDY    44  25  47 S7        30.31R
6HR MIN TEMP:  39; 6HR MAX TEMP:  66;

CANNON AFB     CLOUDY    38  24  56 SE3       30.34R
6HR MIN TEMP:  38; 6HR MAX TEMP:  64;

CLOVIS AIRPORT CLOUDY    37  23  56 SE6       30.35R WCI  33

$$
NMZ028-029-538-130700-
SOUTHEAST PLAINS

CITY           SKY/WX    TMP DP  RH WIND       PRES   REMARKS
ROSWELL        CLEAR     42  25  50 CALM      30.31R
6HR MIN TEMP:  40; 6HR MAX TEMP:  71;

ARTESIA        CLEAR     43  27  52 CALM      30.31S
CARLSBAD       CLOUDY    40  26  57 CALM      30.29R
6HR MIN TEMP:  40; 6HR MAX TEMP:  70;

HOBBS          CLOUDY    41  27  56 CALM      30.34S


$$



USA.gov is the U.S. government's official web portal to all federal, state and local government web resources and services.